Regional Weather Roundup
Issued by NWS

Home | Current Version | Previous Version | Graphics & Text | Print | Product List | Glossary On
Versions: 1 2 3 4 5 6 7 8 9 10 11 12 13 14 15 16 17 18 19 20 21 22 23 24 25 26 27 28 29 30 31 32 33 34 35 36 37 38 39 40 41 42 43 44 45 46 47 48 49 50
394
ASUS43 KTOP 280859
RWRKS

WEATHER ROUNDUP FOR KANSAS
NATIONAL WEATHER SERVICE GOODLAND KS
400 AM CDT WED SEP 28 2016

NOTE:  "FAIR" INDICATES FEW OR NO CLOUDS BELOW 12,000 FEET WITH NO
SIGNIFICANT WEATHER AND/OR OBSTRUCTIONS TO VISIBILITY.

KSZ001>006-013>018-027>032-041>047-281000-
NORTHWEST KANSAS

CITY           SKY/WX    TMP DP  RH WIND       PRES   REMARKS
GOODLAND       CLEAR     48  37  65 NW6       30.11R
HAYS           CLEAR     55  41  58 NW9       30.00R
HILL CITY      CLEAR     51  45  79 W6        30.04R
RUSSELL        CLEAR     56  50  80 NW9       29.97R
$$

KSZ061>065-074>080-084>089-281000-
SOUTHWEST KANSAS

CITY           SKY/WX    TMP DP  RH WIND       PRES   REMARKS
DODGE CITY     CLEAR     65  40  39 W10       30.02S
ELKHART          N/A     60  36  40 W7          N/A
GARDEN CITY    CLEAR     54  41  61 N8        30.04R
GREAT BEND     CLEAR     55  43  62 NW7       29.98R
LIBERAL        CLEAR     52  36  54 NW6       30.06S
$$

KSZ066>073-081>083-090>101-281000-
SOUTHEAST KANSAS

CITY           SKY/WX    TMP DP  RH WIND       PRES   REMARKS
CHANUTE        CLEAR     60  52  74 SW6       29.89S
COFFEYVILLE    CLEAR     58  51  78 S6        29.91F
HUTCHINSON     CLEAR     55  53  93 NW6       29.93F
MEDICINE LODGE   N/A     58  48  69 N5        29.96S
NEWTON         CLEAR     59  55  87 W6        29.93S
PARSONS        CLEAR     52  50  93 CALM      29.91F
WICHITA INTL   CLEAR     58  54  86 CALM      29.91F
WICHITA JABRA  CLEAR     61  55  81 W7        29.91F
WINFIELD       CLEAR     60  52  74 SW7       29.94F
$$

KSZ007>012-019>026-033>040-048>060-102>105-281000-
NORTHEAST KANSAS

CITY           SKY/WX    TMP DP  RH WIND       PRES   REMARKS
CONCORDIA      CLEAR     56  51  84 NW9       29.96R
EMPORIA        CLEAR     62  55  77 W8        29.89S
LAWRENCE       CLEAR     53  53 100 NW5       29.87F
MANHATTAN      CLEAR     54  52  93 SW3       29.91S
OLATHE IND     CLEAR     60  55  83 W5        29.88S
OLATHE EXE     CLEAR     61  54  77 NW6       29.87F
SALINA         CLEAR     60  52  74 NW7       29.93S
TOPEKA BILLARD CLEAR     58  54  86 CALM      29.88S
TOPEKA FORBES  CLEAR     59  54  83 NW3       29.89S
$$




USA.gov is the U.S. government's official web portal to all federal, state and local government web resources and services.